Regional Weather Roundup
Issued by NWS

Home | Current Version | Previous Version | Text Only | Print | Product List | Glossary Off
Versions: 1 2 3 4 5 6 7 8 9 10 11 12 13 14 15 16 17 18 19 20 21 22 23 24 25 26 27 28 29 30 31 32 33 34 35 36 37 38 39 40 41 42 43 44 45 46 47 48 49 50

000
ASUS43 KIND 261909
RWRIN

WEATHER ROUNDUP FOR INDIANA
NATIONAL WEATHER SERVICE INDIANAPOLIS IN
300 PM EDT THU MAR 26 2015

NOTE: "FAIR" INDICATES FEW OR NO CLOUDS BELOW 12,000 FEET WITH NO
SIGNIFICANT WEATHER AND/OR OBSTRUCTIONS TO VISIBILITY.

* - STATION DOES NOT REPORT WEATHER SUCH AS PRECIPITATION OR FOG.

+ - STATION NOT QUALITY CONTROLLED BY THE NATIONAL WEATHER SERVICE.
    USE DATA WITH CAUTION...ESPECIALLY DEWPOINT AND RELATIVE
    HUMIDITY OBSERVATIONS.

INZ001>003-010>013-019-020-262000-
NORTHWEST INDIANA

CITY           SKY/WX    TMP DP  RH WIND       PRES   REMARKS
GARY /AIRPORT/ PTSUNNY   43  19  39 NE9       29.96F
KNOX *+          N/A     39  10  30 N16       29.93S
LA PORTE +     MOSUNNY   41  25  52 NW14G21   29.95S
MICHIGAN CITY+ CLOUDY    39  19  45 N8        29.97S
MONTICELLO +   PTSUNNY   43  32  65 NW13      29.92F
RENSSELAER +   MOSUNNY   45  32  61 W13G21    29.93F
VALPARAISO     MOSUNNY   41  25  53 N10       29.94F

$$

LMZ046-743>745-262000-
SOUTHERN LAKE MICHIGAN

STATION/POSITION TIME  TEMP WIND        PRES
                       AIR  DIR/SP/G
                 (UTC) (F)  (DEG/KT/KT) (MB)
BURNS HARBOR     1900   36   40/  3/  4 1015.2S
MICHIGAN CITY    1900   37  260/  5/  5   N/A

$$

INZ004-005-014>016-021>024-262000-
NORTH CENTRAL INDIANA

CITY           SKY/WX    TMP DP  RH WIND       PRES   REMARKS
ELKHART        PTSUNNY   41  21  45 NW15      29.92F
GOSHEN         PTSUNNY   43  26  51 NW13      29.90F
LOGANSPORT +   PTSUNNY   43  32  65 NW8       29.92F
PERU/GRISSOM   CLOUDY    43  32  64 NW15      29.89F
ROCHESTER +    PTSUNNY   46  30  53 NW13      29.91F
SOUTH BEND     CLOUDY    40  24  53 NW15G24   29.94S
WARSAW +       PTSUNNY   41  28  60 NW15      29.90F

$$

INZ006>009-017-018-025>027-262000-
NORTHEAST INDIANA

CITY           SKY/WX    TMP DP  RH WIND       PRES   REMARKS
ANGOLA *+      PTSUNNY   43  30  61 NW10      29.86F
AUBURN +       CLOUDY    43  30  61 NW9G21    29.88F
FORT WAYNE     CLOUDY    42  31  64 NW13      29.89F
HUNTINGTON +   CLOUDY    42  29  58 NW10G16   29.89F

$$

INZ028-029-035-036-043>045-051>053-262000-
WEST CENTRAL INDIANA

CITY           SKY/WX    TMP DP  RH WIND       PRES   REMARKS
CRAWFORDSVL +  PTSUNNY   40  29  65 MISG      29.94S
GREENCASTLE +  PTSUNNY   39  30  70 NW6       29.95S
LAFAYETTE      PTSUNNY   43  30  60 NW12      29.94F
TERRE HAUTE    PTSUNNY   43  34  70 NW10G21   29.97S

$$

INZ030>032-037>040-046>048-054>057-064-065-262000-
CENTRAL INDIANA

CITY           SKY/WX    TMP DP  RH WIND       PRES   REMARKS
CP ATTERBURY + CLOUDY    41  36  81 NW12      29.93S
COLUMBUS       CLOUDY    39  36  87 NW14      29.93S
FRANKFORT +    PTSUNNY   42  34  72 W14       29.94F
GREENWOOD *+   CLOUDY    41  32  70 NW8G17    29.92F
INDIANAPOLIS   CLOUDY    43  33  68 NW15      29.91F
-EAGLE CREEK   CLOUDY    42  32  67 NW12      29.91F
KOKOMO *+        N/A     43  32  65 NW16      29.91F
MARION +       CLOUDY    40  33  74 NW10G20   29.91F
MT COMFORT *+  CLOUDY    41  28  60 NW12      29.92S
SHELBYVILLE    CLOUDY    43  35  73 NW14      29.90F
ZIONSVILLE +   CLOUDY    42  32  69 NW13      29.92F

$$

INZ033-034-041-042-049-050-058-059-262000-
EAST CENTRAL INDIANA

CITY           SKY/WX    TMP DP  RH WIND       PRES   REMARKS
MUNCIE         CLOUDY    41  34  76 NW12      29.89F

$$

INZ060-061-067>069-081>083-085>088-262000-
SOUTHWEST INDIANA

CITY           SKY/WX    TMP DP  RH WIND       PRES   REMARKS
EVANSVILLE     CLOUDY    43  36  76 NW14      30.01R
HUNTINGBURG *+ CLOUDY    41  36  81 N16       29.98R
WASHINGTON +   CLOUDY    42  34  74 NW14      29.96F

$$

INZ062-063-066-070>080-084-089>092-262000-
SOUTH CENTRAL AND SOUTHEAST INDIANA

CITY           SKY/WX    TMP DP  RH WIND       PRES   REMARKS
BEDFORD +      CLOUDY    41  37  87 NW6       29.95R
BLOOMINGTON    CLOUDY    41  34  76 NW9       29.95R
NORTH VERNON + CLOUDY    43  43 100 NW10      29.92R FOG
SEYMOUR +      CLOUDY    45  41  87 NW13      29.93R

$$



USA.gov is the U.S. government's official web portal to all federal, state and local government web resources and services.